Date String (YYYY-MM-DD hh:mm:ss) UTC,Instrument flags,Ambient pressure (hPa),Sample flow (lpm),Bypass flow (lpm),Sample temperature (°C),Ambient temperature (°C),ASC tube jacket temperature (°C),LED temperature (°C),Box temperature (°C),Sample RH (%),Span deviation,Mass concentration (μg/m³),Mass concentration (μg/m³),Mass concentration (μg/m³)
DateTimeUTC,F1_M11,P_M11,Q1_M11,Q2_M11,T1_M11,T2_M11,T3_M11,T4_M11,T5_M11,U1_M11,ZSPAN_M11,X0_M11,X2_M11,X1_M11
2022-05-02 16:00:00,,0824.5,4.99,0.00,24.3,23.4,00.0,33.3,26.1,20.2,0000.0,0000.98,0000.67,0000.62
2022-05-02 16:01:00,,0824.5,5.00,0.00,24.3,23.4,00.0,33.3,26.1,20.3,0000.0,0001.05,0000.74,0000.70
2022-05-02 16:02:00,,0824.5,5.01,0.00,24.3,23.4,00.0,33.3,26.1,20.3,0000.0,0001.22,0000.86,0000.81
2022-05-02 16:03:00,,0824.5,5.00,0.00,24.3,23.4,00.0,33.3,26.1,20.3,0000.0,0001.37,0000.98,0000.91
2022-05-02 16:04:00,,0824.5,4.99,0.00,24.2,23.3,00.0,33.2,26.0,20.2,0000.0,0001.46,0001.06,0000.99
2022-05-02 16:05:00,,0824.5,5.00,0.00,24.2,23.3,00.0,33.2,26.0,20.1,0000.0,0001.45,0001.07,0001.02
2022-05-02 16:06:00,,0824.5,5.01,0.00,24.2,23.3,00.0,33.2,26.0,20.0,0000.0,0001.43,0001.07,0001.02
2022-05-02 16:07:00,,0824.5,5.00,0.00,24.2,23.3,00.0,33.2,26.0,19.9,0000.0,0001.35,0001.00,0000.95
2022-05-02 16:08:00,,0824.6,4.99,0.00,24.2,23.3,00.0,33.2,26.0,19.8,0000.0,0001.28,0000.93,0000.88
2022-05-02 16:09:00,,0824.6,5.01,0.00,24.2,23.3,00.0,33.2,26.0,19.8,0000.0,0001.31,0000.96,0000.91
2022-05-02 16:10:00,,0824.7,5.00,0.00,24.2,23.3,00.0,33.2,26.0,19.9,0000.0,0001.41,0001.08,0001.02
2022-05-02 16:11:00,,0824.6,4.99,0.00,24.2,23.3,00.0,33.2,26.0,19.8,0000.0,0001.42,0001.15,0001.08
2022-05-02 16:12:00,,0824.6,5.00,0.00,24.2,23.3,00.0,33.2,26.0,19.7,0000.0,0001.57,0001.27,0001.20
2022-05-02 16:13:00,,0824.7,5.02,0.00,24.2,23.3,00.0,33.2,26.0,19.7,0000.0,0001.85,0001.39,0001.33
2022-05-02 16:14:00,,0824.6,5.00,0.00,24.2,23.3,00.0,33.2,26.0,19.7,0000.0,0002.15,0001.54,0001.49
2022-05-02 16:15:00,,0824.7,4.98,0.00,24.2,23.3,00.0,33.2,26.0,19.7,0000.0,0002.31,0001.66,0001.60
2022-05-02 16:16:00,,0824.7,5.00,0.00,24.2,23.3,00.0,33.2,26.0,19.7,0000.0,0002.54,0001.84,0001.78
2022-05-02 16:17:00,,0824.7,5.00,0.00,24.2,23.3,00.0,33.2,26.0,19.5,0000.0,0002.61,0001.89,0001.83
2022-05-02 16:18:00,,0824.8,5.01,0.00,24.2,23.3,00.0,33.2,26.0,19.6,0000.0,0002.65,0001.92,0001.84
2022-05-02 16:19:00,,0824.8,5.00,0.00,24.2,23.3,00.0,33.2,26.0,19.8,0000.0,0002.71,0001.94,0001.85
2022-05-02 16:20:00,,0824.8,5.00,0.00,24.2,23.3,00.0,33.2,26.0,19.5,0000.0,0002.62,0001.85,0001.76
2022-05-02 16:21:00,,0824.8,4.99,0.00,24.2,23.3,00.0,33.2,26.0,19.4,0000.0,0002.43,0001.67,0001.59
2022-05-02 16:22:00,,0824.9,5.01,0.00,24.2,23.3,00.0,33.1,26.0,19.5,0000.0,0002.30,0001.56,0001.48
2022-05-02 16:23:00,,0824.9,5.00,0.00,24.2,23.3,00.0,33.1,26.0,19.4,0000.0,0002.12,0001.40,0001.32
2022-05-02 16:24:00,,0824.9,5.00,0.00,24.2,23.3,00.0,33.1,26.0,19.5,0000.0,0001.74,0001.15,0001.07
2022-05-02 16:25:00,,0824.9,5.00,0.00,24.2,23.3,00.0,33.1,26.0,19.7,0000.0,0001.23,0000.88,0000.80
2022-05-02 16:26:00,,0824.9,5.00,0.00,24.2,23.3,00.0,33.2,26.0,19.8,0000.0,0001.00,0000.69,0000.61
2022-05-02 16:27:00,,0824.9,5.01,0.00,24.2,23.3,00.0,33.1,26.0,19.9,0000.0,0000.75,0000.48,0000.41
2022-05-02 16:28:00,,0824.9,4.99,0.00,24.2,23.3,00.0,33.1,26.0,19.9,0000.0,0000.66,0000.40,0000.32
2022-05-02 16:29:00,,0824.9,5.01,0.00,24.2,23.3,00.0,33.1,26.0,19.9,0000.0,0000.65,0000.40,0000.33
2022-05-02 16:30:00,,0824.9,5.00,0.00,24.2,23.3,00.0,33.1,26.0,19.9,0000.0,0000.69,0000.46,0000.40
2022-05-02 16:31:00,,0824.9,5.00,0.00,24.2,23.3,00.0,33.1,26.0,20.0,0000.0,0000.87,0000.61,0000.55
2022-05-02 16:32:00,,0824.9,5.00,0.00,24.2,23.3,00.0,33.1,26.0,20.1,0000.0,0002.55,0000.76,0000.69
2022-05-02 16:33:00,,0824.9,5.00,0.00,24.2,23.3,00.0,33.1,26.0,20.2,0000.0,0003.00,0000.88,0000.80
2022-05-02 16:34:00,,0824.9,5.00,0.00,24.2,23.3,00.0,33.1,26.0,20.3,0000.0,0003.07,0000.95,0000.88
2022-05-02 16:35:00,,0824.9,5.01,0.00,24.1,23.3,00.0,33.1,26.0,20.3,0000.0,0003.07,0000.97,0000.90
2022-05-02 16:36:00,,0824.9,5.01,0.00,24.1,23.3,00.0,33.1,26.0,20.2,0000.0,0003.04,0000.96,0000.90
2022-05-02 16:37:00,,0824.9,5.00,0.00,24.2,23.3,00.0,33.1,26.0,20.2,0000.0,0003.02,0000.95,0000.90
2022-05-02 16:38:00,,0824.9,5.00,0.00,24.2,23.3,00.0,33.1,26.0,20.3,0000.0,0003.01,0000.94,0000.89
2022-05-02 16:39:00,,0824.9,5.00,0.00,24.2,23.3,00.0,33.1,26.0,20.2,0000.0,0003.03,0000.94,0000.87
2022-05-02 16:40:00,,0824.9,5.00,0.00,24.2,23.3,00.0,33.1,26.0,20.3,0000.0,0003.00,0000.90,0000.82
2022-05-02 16:41:00,,0824.9,5.00,0.00,24.2,23.3,00.0,33.1,26.0,20.2,0000.0,0002.88,0000.81,0000.74
2022-05-02 16:42:00,,0824.9,5.01,0.00,24.2,23.3,00.0,33.1,26.0,20.2,0000.0,0002.71,0000.67,0000.59
2022-05-02 16:43:00,,0824.9,5.00,0.00,24.2,23.4,00.0,33.1,26.1,20.1,0000.0,0001.30,0000.51,0000.44
2022-05-02 16:44:00,,0824.9,5.00,0.00,24.2,23.4,00.0,33.1,26.0,20.0,0000.0,0000.52,0000.37,0000.31
2022-05-02 16:45:00,,0824.9,4.99,0.00,24.2,23.4,00.0,33.1,26.0,19.9,0000.0,0000.45,0000.29,0000.23
2022-05-02 16:46:00,,0824.9,5.00,0.00,24.2,23.4,00.0,33.1,26.1,19.9,0000.0,0000.42,0000.27,0000.20
2022-05-02 16:47:00,,0824.9,5.01,0.00,24.2,23.4,00.0,33.1,26.1,20.0,0000.0,0000.45,0000.27,0000.18
2022-05-02 16:48:00,,0824.9,4.99,0.00,24.2,23.4,00.0,33.1,26.1,20.0,0000.0,0000.47,0000.28,0000.18
2022-05-02 16:49:00,,0824.9,4.99,0.00,24.2,23.4,00.0,33.2,26.1,19.9,0000.0,0000.45,0000.26,0000.16
2022-05-02 16:50:00,,0824.9,5.00,0.00,24.2,23.4,00.0,33.2,26.1,19.8,0000.0,0000.39,0000.23,0000.15
2022-05-02 16:51:00,,0824.9,5.01,0.00,24.2,23.4,00.0,33.2,26.1,19.7,0000.0,0000.37,0000.22,0000.15
2022-05-02 16:52:00,,0824.9,5.00,0.00,24.2,23.4,00.0,33.2,26.1,20.0,0000.0,0000.37,0000.22,0000.14
2022-05-02 16:53:00,,0824.9,4.99,0.00,24.2,23.4,00.0,33.2,26.1,20.2,0000.0,0000.36,0000.20,0000.13
2022-05-02 16:54:00,,0824.9,5.00,0.00,24.2,23.4,00.0,33.2,26.1,20.1,0000.0,0000.36,0000.20,0000.13
2022-05-02 16:55:00,,0824.9,5.01,0.00,24.2,23.4,00.0,33.2,26.1,20.0,0000.0,0000.37,0000.20,0000.13
2022-05-02 16:56:00,,0824.9,5.00,0.00,24.2,23.4,00.0,33.2,26.1,19.8,0000.0,0000.37,0000.20,0000.12
2022-05-02 16:57:00,,0825.0,4.99,0.00,24.2,23.4,00.0,33.2,26.1,19.9,0000.0,0000.40,0000.20,0000.12
2022-05-02 16:58:00,,0825.0,5.00,0.00,24.2,23.4,00.0,33.2,26.1,20.0,0000.0,0000.38,0000.20,0000.13
2022-05-02 16:59:00,,0825.1,5.01,0.00,24.3,23.4,00.0,33.2,26.1,20.1,0000.0,0000.35,0000.19,0000.13
